K7RRL-2 Weather Reports


Display with metric or nautical units.
time (UTC)temp
F
wind
direction
speed
MPH
gust
MPH
rain 1hr
in
rain 24hr
in
rain mn
in
humidity
%
barometer
mb
20260505223518 64 0.0 4.0 0.00 0.00 0.00 70 1014.7
20260505222517 64 0.0 1.0 0.00 0.00 0.00 71 1014.8
20260505221518 63 270 1.0 4.0 0.00 0.00 0.00 71 1014.9
20260505220517 64 270 1.0 4.0 0.00 0.00 0.00 69 1014.8
20260505215518 63 0.0 3.0 0.00 0.00 0.00 70 1014.8
20260505214517 63 0.0 2.0 0.00 0.00 0.00 71 1015.0
20260505213517 63 0.0 2.0 0.00 0.00 0.00 71 1015.1
20260505212538 62 0.0 2.0 0.00 0.00 0.00 72 1015.1
20260505211517 62 0.0 1.0 0.00 0.00 0.00 72 1015.1
20260505210517 62 0.0 3.0 0.00 0.00 0.00 72 1015.1
20260505205518 62 0.0 1.0 0.00 0.00 0.00 72 1015.1
20260505204517 62 0.0 1.0 0.00 0.00 0.00 73 1015.2
20260505203517 61 0.0 0.0 0.00 0.00 0.00 76 1015.2
20260505202517 60 0.0 2.0 0.00 0.00 0.00 76 1015.2
20260505201517 61 0.0 0.0 0.00 0.00 0.00 76 1015.1
20260505200538 60 0.0 1.0 0.00 0.00 0.00 77 1015.2
20260505195517 60 0.0 3.0 0.00 0.00 0.00 76 1015.2
20260505194517 60 0.0 2.0 0.00 0.00 0.00 76 1015.2
20260505193518 59 0.0 1.0 0.00 0.00 0.00 78 1015.2
20260505192517 58 0.0 3.0 0.00 0.00 0.00 78 1015.2
20260505191517 58 0.0 2.0 0.00 0.00 0.00 79 1015.2
20260505190517 58 0.0 2.0 0.00 0.00 0.00 80 1015.2
20260505185517 58 0.0 1.0 0.00 0.00 0.00 81 1015.2
20260505184517 58 0.0 2.0 0.00 0.00 0.00 79 1015.3
20260505183518 57 0.0 2.0 0.00 0.00 0.00 80 1015.2
20260505182517 57 0.0 1.0 0.00 0.00 0.00 80 1015.2
20260505181518 57 0.0 0.0 0.00 0.00 0.00 81 1015.2
20260505180518 57 0.0 1.0 0.00 0.00 0.00 82 1015.2
20260505175518 57 0.0 2.0 0.00 0.00 0.00 81 1015.1
20260505174517 56 0.0 0.0 0.00 0.00 0.00 83 1015.2
20260505173517 56 0.0 2.0 0.00 0.00 0.00 82 1015.1
20260505172517 56 0.0 3.0 0.00 0.00 0.00 83 1015.0
20260505171517 56 0.0 0.0 0.00 0.00 0.00 83 1015.0
20260505170517 56 0.0 2.0 0.00 0.00 0.00 83 1015.0
20260505165518 56 270 1.0 4.0 0.00 0.00 0.00 83 1014.9
20260505164537 56 0.0 0.0 0.00 0.00 0.00 83 1014.9
20260505163517 55 0.0 0.0 0.00 0.00 0.00 83 1014.8
20260505162517 55 0.0 1.0 0.00 0.00 0.00 83 1014.7
20260505161518 55 0.0 0.0 0.00 0.00 0.00 84 1014.7
20260505160517 55 0.0 3.0 0.00 0.00 0.00 83 1014.8
20260505152516 55 0.0 0.0 0.00 0.00 0.00 85 1014.6
20260505151516 55 0.0 3.0 0.00 0.00 0.00 85 1014.6
20260505150517 55 0.0 1.0 0.00 0.00 0.00 85 1014.6
20260505140517 54 0.0 3.0 0.00 0.00 0.00 85 1014.0
20260505124517 54 0.0 2.0 0.00 0.00 0.00 86 1013.4
20260505123516 54 0.0 0.0 0.00 0.00 0.00 86 1013.4
20260505122517 54 0.0 0.0 0.00 0.00 0.00 86 1013.4
20260505121516 54 0.0 2.0 0.00 0.00 0.00 86 1013.3
20260505120516 54 0.0 3.0 0.00 0.00 0.00 86 1013.2
20260505115516 54 0.0 0.0 0.00 0.00 0.00 86 1013.2
20260505114516 54 0.0 0.0 0.00 0.00 0.00 86 1013.2
20260505113517 54 0.0 0.0 0.00 0.00 0.00 86 1013.1
20260505112516 54 0.0 0.0 0.00 0.00 0.00 86 1013.2
20260505111517 54 0.0 0.0 0.00 0.00 0.00 86 1013.2
20260505110516 54 0.0 0.0 0.00 0.00 0.00 86 1013.1
20260505101517 54 0.0 1.0 0.00 0.00 0.00 86 1012.8
20260505100518 54 0.0 1.0 0.00 0.00 0.00 86 1012.7
20260505095518 54 0.0 2.0 0.00 0.00 0.00 87 1012.8
20260505094519 53 0.0 3.0 0.00 0.00 0.00 87 1012.6
20260505093519 53 0.0 1.0 0.00 0.00 0.00 87 1012.5
20260505092518 53 0.0 0.0 0.00 0.00 0.00 87 1012.5
20260505091519 53 0.0 1.0 0.00 0.00 0.00 87 1012.5
20260505090518 52 0.0 0.0 0.00 0.00 0.00 87 1012.3
20260505085519 52 0.0 0.0 0.00 0.00 0.00 86 1012.3
20260505084518 51 0.0 0.0 0.00 0.00 0.00 86 1012.3
20260505083518 51 0.0 0.0 0.00 0.00 0.00 86 1012.2
20260505082518 51 0.0 0.0 0.00 0.00 0.00 87 1012.3
20260505081519 51 0.0 0.0 0.00 0.00 0.00 87 1012.2
20260505080518 52 0.0 0.0 0.00 0.00 0.00 87 1012.1
20260505075518 52 0.0 0.0 0.00 0.00 0.00 87 1012.0
20260505074539 52 0.0 0.0 0.00 0.00 0.00 87 1011.9
20260505073538 53 0.0 0.0 0.00 0.00 0.00 87 1011.8
20260505072540 53 0.0 0.0 0.00 0.00 0.00 87 1011.7
20260505071538 53 0.0 0.0 0.00 0.00 0.00 86 1011.5
20260505070538 53 0.0 0.0 0.00 0.00 0.00 86 1011.5
20260505065518 53 0.0 0.0 0.00 0.00 0.00 86 1011.4
20260505064517 53 0.0 0.0 0.00 0.00 0.00 86 1011.4
20260505063517 54 0.0 0.0 0.00 0.00 0.00 86 1011.3
20260505062518 54 0.0 0.0 0.00 0.00 0.00 85 1011.1
20260505061537 55 0.0 0.0 0.00 0.00 0.00 85 1011.0
20260505060518 55 0.0 0.0 0.00 0.00 0.00 85 1011.0
20260505055518 55 0.0 1.0 0.00 0.00 0.00 84 1010.8
20260505054519 56 0.0 3.0 0.00 0.00 0.00 84 1010.7
20260505053518 56 0.0 2.0 0.00 0.00 0.00 83 1010.7
20260505052517 56 0.0 2.0 0.00 0.00 0.00 83 1010.6
20260505051518 57 0.0 0.0 0.00 0.00 0.00 82 1010.5
20260505050538 57 0.0 0.0 0.00 0.00 0.00 81 1010.4
20260505041518 60 0.0 4.0 0.00 0.00 0.00 76 1009.8
20260505040517 61 315 1.0 4.0 0.00 0.00 0.00 75 1009.8
20260505035519 61 0.0 3.0 0.00 0.00 0.00 73 1009.7
20260505034538 62 0.0 4.0 0.00 0.00 0.00 71 1009.6
20260505033517 63 0.0 2.0 0.00 0.00 0.00 70 1009.4
20260505032517 64 0.0 6.0 0.00 0.00 0.00 68 1009.2
20260505031519 65 270 1.0 10.0 0.00 0.00 0.00 66 1009.0
20260505030537 66 0.0 2.0 0.00 0.00 0.00 65 1008.9
20260505025517 68 0.0 5.0 0.00 0.00 0.00 63 1008.8
20260505024517 68 0.0 3.0 0.00 0.00 0.00 62 1008.6
20260505023517 69 0.0 3.0 0.00 0.00 0.00 60 1008.6
20260505022517 71 248 1.0 5.0 0.00 0.00 0.00 58 1008.5
20260505021517 72 248 1.0 4.0 0.00 0.00 0.00 55 1008.5
20260505020518 72 270 1.0 4.0 0.00 0.00 0.00 54 1008.4
20260505015538 73 0.0 4.0 0.00 0.00 0.00 53 1008.4
20260505014517 74 248 1.0 5.0 0.00 0.00 0.00 52 1008.4
20260505013518 75 0.0 2.0 0.00 0.00 0.00 51 1008.4
20260505012538 76 270 2.0 7.0 0.00 0.00 0.00 49 1008.4
20260505011517 76 248 1.0 6.0 0.00 0.00 0.00 51 1008.4
20260505010518 77 270 1.0 3.0 0.00 0.00 0.00 50 1008.4
20260505005517 77 270 1.0 6.0 0.00 0.00 0.00 51 1008.5
20260505004517 78 270 2.0 9.0 0.00 0.00 0.00 49 1008.4
20260505003517 78 0.0 5.0 0.00 0.00 0.00 50 1008.4
20260505002538 78 270 2.0 6.0 0.00 0.00 0.00 49 1008.4
20260505001517 79 0.0 1.0 0.00 0.00 0.00 52 1008.4
20260505000517 78 270 1.0 7.0 0.00 0.00 0.00 51 1008.3
20260504235518 78 270 1.0 6.0 0.00 0.00 0.00 49 1008.4
20260504234518 78 270 1.0 4.0 0.00 0.00 0.00 50 1008.3
20260504233517 78 270 1.0 7.0 0.00 0.00 0.00 51 1008.3
20260504232517 79 225 1.0 7.0 0.00 0.00 0.00 49 1008.4
20260504231517 80 0.0 2.0 0.00 0.00 0.00 49 1008.4
20260504230518 79 225 1.0 7.0 0.00 0.00 0.00 49 1008.6
20260504225517 79 270 1.0 4.0 0.00 0.00 0.00 48 1008.7
20260504224517 79 248 1.0 6.0 0.00 0.00 0.00 49 1008.7